Regional Weather Roundup
Issued by NWS

Home | Current Version | Previous Version | Text Only | Print | Product List | Glossary On
Versions: 1 2 3 4 5 6 7 8 9 10 11 12 13 14 15 16 17 18 19 20 21 22 23 24 25 26 27 28 29 30 31 32 33 34 35 36 37 38 39 40 41 42 43 44 45 46 47 48 49 50
000
ASUS43 KDMX 172306
RWRIA

WEATHER ROUNDUP FOR IOWA
NATIONAL WEATHER SERVICE DES MOINES IA
500 PM CST WED JAN 17 2018

NOTE: "FAIR" INDICATES FEW OR NO CLOUDS BELOW 12,000 FEET WITH NO
SIGNIFICANT WEATHER AND/OR OBSTRUCTIONS TO VISIBILITY.

* - THESE STATIONS ARE NOT NWS STATIONS...THUS NOT UNDER NWS
QUALITY CONTROL.  THEY ALSO DO NOT REPORT WEATHER SUCH
AS PRECIPITATION OR FOG.

IAZ001>003-012>014-020>022-031>034-043>046-180000-
   NORTHWEST IOWA

CITY           SKY/WX    TMP DP  RH WIND       PRES   REMARKS
CARROLL *      CLEAR     23  12  63 SW20G25   30.29F WCI   8
CHEROKEE *     CLEAR     29  18  61 SW14      30.25S WCI  19
DENISON *      CLEAR     27  14  59 SW10G16   30.32F WCI  17
LE MARS *      CLEAR     34  18  51 SW13G21   30.24S WCI  25
ORANGE CITY *  CLEAR     30  19  64 SW14      30.22S WCI  20
SHELDON *      CLEAR     30  18  59 SW13      30.20R WCI  20
SIOUX CITY     CLEAR     33  19  56 S13       30.28F WCI  24
SPENCER        CLEAR     29  17  61 SW15      30.20F WCI  18
STORM LAKE *   CLEAR     27  16  63 SW17      30.23F WCI  14
$$

IAZ055>058-069>071-079>083-090>094-180000-
   SOUTHWEST IOWA

CITY           SKY/WX    TMP DP  RH WIND       PRES   REMARKS
ATLANTIC *     CLEAR     23  10  58 SW17      30.37F WCI   9
AUDUBON *      CLEAR     23  10  58 SW12G21   30.34S WCI  12
CLARINDA *     CLEAR     23  12  63 SW9       30.45F WCI  13
COUNCIL BLFS * CLEAR     23  12  63 S15       30.36F WCI  10
CRESTON *      CLEAR     21  10  63 SW16      30.40S WCI   7
HARLAN  *      CLEAR     21  12  68 S17G24    30.38F WCI   7
LAMONI         CLEAR     22   8  55 SW9       30.43S WCI  12
RED OAK *      CLEAR     23  12  63 S12       30.41F WCI  12
SHENANDOAH *   CLEAR     23  12  63 SW9       30.44F WCI  13
$$

IAZ047>049-059>061-072>074-084-180000-
   CENTRAL IOWA

CITY           SKY/WX    TMP DP  RH WIND       PRES   REMARKS
AMES           CLEAR     23  13  65 SW14      30.33F WCI  11
ANKENY *       CLEAR     25   9  50 SW14G22   30.38S WCI  13
BOONE *        CLEAR     25  12  58 SW17      30.30F WCI  11
CHARITON *     CLEAR     23   9  54 SW9G15    30.40F WCI  13
DES MOINES     CLEAR     24   9  52 SW15      30.37F WCI  11
GRINNELL*      CLEAR     22  10  59 SW16      30.37F WCI   9
KNOXVILLE *    CLEAR     25   5  42 SW12G18   30.38F WCI  14
MARSHALLTOWN   CLEAR     22  11  62 SW13      30.32F WCI  10
NEWTON *       CLEAR     23  10  58 SW14      30.37S WCI  11
PELLA *        CLEAR     25   8  48 SW12      30.41F WCI  14
PERRY *          N/A     23  10  57 SW16      30.34F WCI  10
$$

IAZ004>006-015-016-023>025-035-036-180000-
   NORTH CENTRAL IOWA

CITY           SKY/WX    TMP DP  RH WIND       PRES   REMARKS
ALGONA *       CLEAR     27  27 100 SW17      30.20F WCI  14
CLARION *      CLEAR     23  16  74 SW18      30.25F WCI   9
ESTHERVILLE    CLEAR     27  17  66 SW26G35   30.15F WCI  12
FORT DODGE *   CLEAR     23  13  65 SW18G26   30.27F WCI   9
MASON CITY     CLEAR     23  12  62 SW17G25   30.23F WCI   9
FOREST CITY *    N/A     23  18  80 SW12      30.21S WCI  12
WEBSTER CITY * CLEAR     23  12  63 SW20G26   30.26F WCI   8
IOWA FALLS *     N/A     23  13  66 SW13      30.30S HAZE    WCI  12
$$

IAZ007>011-017>019-026>030-037>042-050>054-066-180000-
   NORTHEAST IOWA

CITY           SKY/WX    TMP DP  RH WIND       PRES   REMARKS
CEDAR RAPIDS     N/A     22   9  57 SW13      30.35F WCI  10
CHARLES CITY *   N/A     23  12  63 SW16      30.24F WCI  10
CLINTON *        N/A     18  11  74 SW14      30.39F WCI   4
DECORAH *        N/A     21  10  63 SW10G20   30.22F WCI  10
DUBUQUE          N/A     18   8  65 SW18G24   30.30F WCI   2
MONTICELLO *     N/A     21  10  63 SW10      30.34F WCI  10
OELWEIN *        N/A     19  12  73 SW15      30.29F WCI   5
WATERLOO         N/A     22   9  57 SW13      30.31S WCI  10
$$

IAZ064-065-067-068-078-180000-
   EAST CENTRAL IOWA

CITY           SKY/WX    TMP DP  RH WIND       PRES   REMARKS
DAVENPORT        N/A     21  10  62 SW14      30.41F WCI   8
IOWA CITY        N/A     23  10  57 SW9       30.41F WCI  13
MT. PLEASANT * CLEAR     21  10  63 SW13      30.44F WCI   9
MUSCATINE *      N/A     23  12  63 SW12      30.43F WCI  12
QUAD CITIES      N/A     21  11  65 SW12      30.41F WCI   9
$$

IAZ062-063-075>077-085>089-095>099-180000-
   SOUTHEAST IOWA

CITY           SKY/WX    TMP DP  RH WIND       PRES   REMARKS
BURLINGTON     CLEAR     20   9  62 SW14      30.45F WCI   7
FAIRFIELD *    CLEAR     23   9  54 SW13      30.42F WCI  11
FORT MADISON * CLEAR     19  10  68 SW9       30.47F WCI   9
KEOKUK *       CLEAR     21  10  63 SW12G17   30.48S WCI   9
OSKALOOSA *      N/A     22  12  65 SW10      30.42S WCI  11
OTTUMWA        CLEAR     23   9  55 SW10      30.42S WCI  12
WASHINGTON *   CLEAR     23  12  63 SW14G20   30.42F WCI  11
$$

ABBREVIATIONS USED IN REMARKS
   TC - TEMPERATURES IN CELSIUS
  WCI - WIND CHILL INDEX
   HX - HEAT INDEX
  VSB - VISIBILITY
$$





USA.gov is the U.S. government's official web portal to all federal, state and local government web resources and services.